Tracking 25648 objects as of 17-May-2022
HD Live streaming from Space Station
objects crossing your sky now

COSMOS 2251 DEB

Track COSMOS 2251 DEB now!
10-day predictions


NORAD ID: 37956
Int'l Code: 1993-036BPF
Perigee: 634.6 km
Apogee: 698.4 km
Inclination: 74.0 °
Period: 97.9 minutes
Semi major axis: 7037 km
RCS: 0.0022 m2 (small)
Launch date: June 16, 1993
Source: Commonwealth of Independent States (former USSR) (CIS)
Launch site: PLESETSK MISSILE AND SPACE COMPLEX (PKMTR)

Note: This is SATELLITE DEBRIS
aabbcc
Your satellite tracking list
Your tracking list is empty




NASA's NSSDC Master Catalog

Two Line Element Set (TLE):
1 37956U 93036BPF 22137.51151853  .00009983  00000-0  16215-2 0  9991
2 37956  74.0430 171.4450 0045285 240.3002 119.3659 14.70534368608332
Source of the keplerian elements: AFSPC